Notices

What's New in latest Release from April 7th, 2021:

- Updated Glossary, including Speed of Maximum Gust, and Total Hourly Precipitation

- Updated national and regional climate services offices contacts and prices information

- Addition of station inventory lists for 1981-2010, 1971-2000, and 1961-1990 Normals.

If you haven't already, please take our survey and provide feedback about our website: https://eccc.sondage-survey.ca/f/LanguageSelection.aspx?s=442ca660-fcf1-47c0-95a9-59707d6fd709

Hourly Data Report for October 31, 2004

SHERBROOKE A
QUEBEC

45°26'00.000" N
71°41'00.000" W
241.40 m
7028124
71610
YSC

Download Data

Hourly Data (October 2004)
Hourly Data Report for October 31, 2004
TIME
LST
Temp Definition
°C
Dew Point Definition
°C
Rel Hum Definition
%
Precip. Amount Definition
mm

Wind Dir Definition
10's deg

Wind Spd Definition
km/h
Visibility Definition
km
Stn Press Definition
kPa
Hmdx Definition


Wind Chill Definition


Weather Definition


00:00 10.8 10.3 97   12 7 9.7 97.13      
01:00 11.0 10.3 95   15 9 12.9 97.15     Rain
02:00 11.4 10.7 95   13 7 9.7 97.05     Rain
03:00 12.9 12.0 94   23 6 11.3 97.00     Rain
04:00 13.7 12.0 89   21 15 15.0 96.97      
05:00 12.5 10.0 85   27 26 15.0 97.09     Rain
06:00 10.8 8.6 86   25 19 15.0 97.11     Rain
07:00 10.9 7.5 80   26 15 15.0 97.15      
08:00 11.0 6.7 75   25 13 24.1 97.22     Mainly Clear
09:00 12.1 6.8 70   23 20 24.1 97.19     Mostly Cloudy
10:00 12.7 6.5 66   25 20 24.1 97.21     Mostly Cloudy
11:00 12.6 5.5 62   23 20 24.1 97.19     Mostly Cloudy
12:00 12.5 6.1 65   25 24 24.1 97.15     Cloudy
13:00 12.1 6.4 68   24 17 24.1 97.15     Cloudy
14:00 12.5 5.1 61   25 26 24.1 97.17     Cloudy
15:00 12.1 5.1 62   26 19 24.1 97.22     Cloudy
16:00 11.9 5.6 65   25 15 24.1 97.27     Cloudy
17:00 10.0 8.0 87   24 13 19.3 97.32     Cloudy
18:00 9.4 8.7 95   23 15 15.0 97.36      
19:00 9.6 8.7 94   24 11 8.0 97.41     Drizzle
20:00 9.5 8.7 95   25 15 8.0 97.43     Drizzle
21:00 9.0 7.8 92   27 26 15.0 97.50     Rain
22:00 7.2 5.9 91   30 17 9.7 97.62     Rain
23:00 6.8 5.6 92   28 19 11.3 97.66     Drizzle

Notes on Data Quality.

Legend

  • E = Estimated
  • M = Missing
  • NA = Not Available*
  • [empty] = Indicates an unobserved value
Date modified: